Starlink 30558

operational
NORAD ID: 58060 Int'l Des: 2023-158 Owner: SPXS Country: US Constellation: starlink
LEOCIRCULAR

About Starlink 30558

Description loading...

Live Position

Loading 3D Globe...

Upcoming Passes

Altitude History

Altitude vs Time

uPlot chart will show altitude changes over time

Two-Line Element Set

1 58060U 23158K 25352.83374211 .00000556 00000-0 56245-4 0 9996
2 58060 43.0024 110.0856 0001504 273.5005 86.5665 15.02536854121365
Epoch: Dec 18, 2025 • Age: 36 hours

Current Status

Altitude 559.2 km
Velocity 7.59 km/s
Sub-Earth Point 20.55°N, 52.71°E
Launch Date Oct 13, 2023
Age 2.1 years
Type internet

Technical Details

Classification Payload
Mass 730.00 kg
Dry Mass 700.00 kg
Total Mass 730.00 kg
Length 0.30 m
Diameter 4.10 m
Span 29.00 m
Shape Box + pan
Manufacturer SPXS
Bus Type Starlink V2M
Phase Status In Orbit
Owner/State SPXS/US

Large Constellations

Loading constellations...